This is the latest recevied weather packets stored in our database for station/object EA3KZ-1. If no packets are shown the sender has not sent any weather packets the latest 10 day(s).
| Time | Temp. | Humidity | Pressure | Rain* | Wind** | Luminosity | Snow |
|---|---|---|---|---|---|---|---|
| 1787656517 | 30° C | 40% | 1009.6 hPa | 0 mm | - | - | - |
| 1787655974 | 30° C | 40% | 1009.6 hPa | 0 mm | - | - | - |
| 1787655372 | 29.44° C | 40% | 1009.7 hPa | 0 mm | - | - | - |
| 1787654769 | 28.89° C | 41% | 1009.7 hPa | 0 mm | - | - | - |
| 1787654167 | 29.44° C | 41% | 1009.6 hPa | 0 mm | - | - | - |
| 1787653564 | 28.89° C | 43% | 1009.6 hPa | 0 mm | - | - | - |
| 1787652962 | 28.33° C | 44% | 1009.8 hPa | 0 mm | - | - | - |
| 1787652359 | 28.33° C | 44% | 1009.9 hPa | 0 mm | - | - | - |
| 1787651756 | 28.33° C | 46% | 1009.7 hPa | 0 mm | - | - | - |
| 1787651154 | 27.78° C | 47% | 1009.9 hPa | 0 mm | - | - | - |
| 1787650551 | 27.78° C | 48% | 1009.8 hPa | 0 mm | - | - | - |
| 1787649949 | 27.22° C | 48% | 1009.6 hPa | 0 mm | - | - | - |
| 1787649346 | 27.22° C | 51% | 1009.6 hPa | 0 mm | - | - | - |
| 1787648744 | 26.67° C | 51% | 1009.5 hPa | 0 mm | - | - | - |
| 1787648141 | 26.11° C | 53% | 1009.3 hPa | 0 mm | - | - | - |
| 1787647538 | 26.11° C | 54% | 1009.2 hPa | 0 mm | - | - | - |
| 1787646936 | 26.11° C | 53% | 1009.1 hPa | 0 mm | - | - | - |
| 1787646333 | 26.11° C | 55% | 1009 hPa | 0 mm | - | - | - |
| 1787645730 | 25° C | 58% | 1009 hPa | 0 mm | - | - | - |
| 1787645128 | 25.56° C | 58% | 1009.1 hPa | 0 mm | - | - | - |
| 1787644525 | 25.56° C | 58% | 1008.9 hPa | 0 mm | - | - | - |
| 1787643923 | 25.56° C | 58% | 1009 hPa | 0 mm | - | - | - |
| 1787643320 | 25° C | 57% | 1008.8 hPa | 0 mm | - | - | - |
| 1787642718 | 25° C | 61% | 1008.8 hPa | 0 mm | - | - | - |
| 1787642115 | 23.89° C | 63% | 1008.6 hPa | 0 mm | - | - | - |
* Rain latest hour (hover to see other rain measurements)
** Current wind speed in m/s (hover to see current wind gust speed)